Regional Weather Roundup
Issued by NWS Newport/Morehead, NC

Current Version | Previous Version | Text Only | Print | Product List | Glossary On
Versions: 1 2 3 4 5 6 7 8 9 10 11 12 13 14 15 16 17 18 19 20 21 22 23 24 25 26 27 28 29 30 31 32 33 34 35 36 37 38 39 40 41 42 43 44 45 46 47 48 49 50
000 ASUS42 KMHX 281127 RWRMHX WEATHER ROUNDUP FOR EASTERN NORTH CAROLINA NATIONAL WEATHER SERVICE NEWPORT/MOREHEAD CITY NC 700 AM EDT SAT MAR 28 2015 NOTE: "FAIR" INDICATES FEW OR NO CLOUDS BELOW 12,000 FEET WITH NO SIGNIFICANT WEATHER AND/OR OBSTRUCTIONS TO VISIBILITY NCZ015>017-031-032-045>047-102-103-281200- NORTH COAST CITY SKY/WX TMP DP RH WIND PRES REMARKS EDENTON CLOUDY 40 33 77 N10G18 29.91R ELIZABETH CITY CLOUDY 39 34 82 NW13 29.88R KITTY HAWK MOSUNNY 41 33 73 NW8G20 29.84R MANTEO MOCLDY 41 33 73 N14G22 29.87R $$ NCZ045>047-081-094-103-104-281200- CENTRAL COAST CITY SKY/WX TMP DP RH WIND PRES REMARKS FRISCO CLOUDY 42 36 79 NW12G22 29.86R SWANQUARTER N/A 39 N/A N/A NW10G16 29.85R $$ NCZ095-097-098-100-101-281200- SOUTHERN COAST CITY SKY/WX TMP DP RH WIND PRES REMARKS BEAUFORT PTCLDY 41 38 89 NW15 29.90R CEDAR ISLAND N/A 43 N/A N/A NW23G29 29.91S JACKSONVILLE LGT RAIN 42 38 85 W7 29.93R PINEY ISLAND MOSUNNY N/A N/A N/A NW14 29.89R WILMINGTON RAIN 42 39 89 NW17 29.94R FOG $$ NCZ011>013-027>030-043-044-078>080-089-090>093-098-281200- COASTAL PLAIN CITY SKY/WX TMP DP RH WIND PRES REMARKS AHOSKIE CLOUDY 37 33 87 NW3 29.92R CLINTON MOCLDY 40 38 92 CALM 29.96R ELIZABETHTOWN MOCLDY 39 38 97 CALM 29.96R GOLDSBORO CLOUDY 38 38 99 N8 29.93R GREENVILLE DRIZZLE 37 36 93 NW8 29.96R HAVELOCK CLOUDY 41 37 86 NW10 29.92R KENANSVILLE CLOUDY 39 36 88 N6 29.95R KINSTON LGT RAIN 37 36 93 N9 29.95R NEW BERN CLOUDY 41 37 86 NW9 29.93R RICHLANDS CLOUDY 41 36 81 NW7 29.94R ROCKY MOUNT MOCLDY 36 33 89 NW5 29.95R WASHINGTON CLOUDY 38 35 87 NW8 29.93R WHITEVILLE MOCLDY 41 37 86 CALM 29.96R $$ AMZ130-135-150-152-154-156-158-170-250-252-270-ANZ085-086-088-633-658-670-281200- MARINE OBSERVATIONS STATION/POSITION TIME TEMP WIND PRES WAVE SWELL AIR SEA DIR/SP/G HT/PER HT/PER (UTC) (F) (DEG/KT/KT) (MB) (FT/S) (FT/S) CHESAPEAKE LIGHT 1100 40 330/ 26/ 29 1011.0 64 E VA BEACH 1050 44 56 350/ 25/ 31 1007.5 9/ 7 DUCK 1100 42 41 340/ 19/ 21 1010.0 2 E DUCK 1111 42 N/A 6/ 7 2/11 10 NE DUCK NOT AVBL OREGON INLET 1100 41 45 330/ 13/ 21 1010.9 HATTERAS CG 1100 44 54 320/ 22/ 24 1011.3 CAPE LOOKOUT 1100 42 310/ 12/ 15 1012.3 BEAUFORT LAB 1100 41 56 320/ 6/ 13 1011.9 27 SE WRIGHTSVLE 1100 45 64 340/ 16/ 17 1014.2 5 SE WRIGHTSVLE 1000 47 56 320/ 14/ 17 1012.3 225 S CAPE HAT 1050 64 69 290/ 25/ 29 1009.4 12/ 8 41 SE CHARLESTON 1050 53 68 310/ 17/ 23 1013.5 5/ 6 3/ 7 $$

USA.gov is the U.S. government's official web portal to all federal, state and local government web resources and services.